Location: Unspecified
(41.5000°N, 0.0000°E)
Time: 17:15:54
(UTC+00:00)

Vanguard 1 Rocket - All Passes

Search period start: 19 June 2019 00:00
Search period end: 29 June 2019 00:00
Orbit: 652 x 4224 km, 34.3° (Epoch: 18 June)

Date Brightness Start Highest point End Pass type
(mag) Time Alt. Az. Time Alt. Az. Time Alt. Az.
19 Jun - 13:55:06 10° SSE 14:02:08 13° SE 14:08:06 10° ESE daylight
19 Jun - 16:15:11 10° SSW 16:30:37 32° SSE 16:39:46 10° E daylight
19 Jun - 18:44:32 10° WSW 18:57:37 50° S 19:04:32 10° E daylight
19 Jun - 21:14:47 10° W 21:22:56 43° SSW 21:27:53 10° ESE visible
19 Jun - 23:44:26 10° WSW 23:46:40 13° SW 23:48:42 10° S visible
20 Jun - 15:02:34 10° SSW 15:17:51 26° SSE 15:27:55 10° ESE daylight
20 Jun - 17:30:10 10° SW 17:45:44 46° SSE 17:54:01 10° E daylight
20 Jun - 20:01:02 10° WSW 20:11:54 52° S 20:17:50 10° ESE visible
20 Jun - 22:30:49 10° W 22:36:17 25° SSW 22:40:15 10° SSE visible
21 Jun - 13:51:47 10° S 14:04:45 19° SE 14:14:31 10° ESE daylight
21 Jun - 16:16:00 10° SW 16:33:20 40° SSE 16:43:08 10° E daylight
21 Jun - 18:46:37 10° WSW 19:00:27 55° S 19:07:36 10° ESE daylight
21 Jun - 21:17:25 10° W 21:25:41 40° SSW 21:30:43 10° SE visible
22 Jun - 12:46:04 10° SSE 12:51:27 11° SE 12:56:20 10° SE daylight
22 Jun - 15:02:34 10° SSW 15:20:28 33° SSE 15:31:38 10° E daylight
22 Jun - 17:31:51 10° WSW 17:48:30 52° S 17:57:07 10° E daylight
22 Jun - 20:03:27 10° W 20:14:43 52° S 20:20:47 10° ESE visible
22 Jun - 22:33:54 10° W 22:38:51 20° SW 22:42:34 10° SSE visible
23 Jun - 13:50:32 10° S 14:07:15 25° SE 14:19:05 10° E daylight
23 Jun - 16:17:09 10° SW 16:36:01 47° SSE 16:46:19 10° E daylight
23 Jun - 18:48:49 10° WSW 19:03:14 58° S 19:10:36 10° ESE daylight
23 Jun - 21:20:06 10° W 21:28:22 35° SSW 21:33:26 10° SE visible
24 Jun - 12:41:00 10° S 12:53:52 17° SE 13:04:20 10° ESE daylight
24 Jun - 15:03:06 10° SW 15:23:02 40° SSE 15:35:01 10° E daylight
24 Jun - 17:33:43 10° WSW 17:51:14 58° S 18:00:10 10° E daylight
24 Jun - 20:05:55 10° W 20:17:28 50° SSW 20:23:41 10° ESE visible
24 Jun - 22:37:16 10° WSW 22:41:18 16° SW 22:44:30 10° S visible
25 Jun - 13:50:13 10° SSW 14:09:40 32° SSE 14:22:55 10° E daylight
25 Jun - 16:18:35 10° SW 16:38:40 53° SSE 16:49:24 10° E daylight
25 Jun - 18:51:04 10° W 19:06:00 59° S 19:13:34 10° ESE daylight
25 Jun - 21:22:51 10° W 21:30:56 30° SSW 21:36:00 10° SSE visible
26 Jun - 12:39:10 10° S 12:56:08 23° SE 13:09:21 10° E daylight
26 Jun - 15:04:01 10° SW 15:25:33 47° SSE 15:38:13 10° E daylight
26 Jun - 17:35:42 10° WSW 17:53:57 62° S 18:03:09 10° E daylight
26 Jun - 20:08:24 10° W 20:20:08 46° SSW 20:26:29 10° SE visible
26 Jun - 22:41:25 10° WSW 22:43:39 12° SW 22:45:35 10° SSW visible
27 Jun - 11:31:42 10° SSE 11:42:40 15° SE 11:52:27 10° ESE daylight
27 Jun - 13:50:31 10° SSW 14:12:01 38° SSE 14:26:21 10° E daylight
27 Jun - 16:20:15 10° WSW 16:41:16 59° S 16:52:26 10° E daylight
27 Jun - 18:53:22 10° W 19:08:42 58° SSW 19:16:29 10° ESE daylight
27 Jun - 21:25:42 10° W 21:33:22 25° SW 21:38:22 10° SSE visible
28 Jun - 12:38:33 10° SSW 12:58:19 30° SE 13:13:24 10° E daylight
28 Jun - 15:05:16 10° SW 15:28:01 53° SSE 15:41:17 10° E daylight
28 Jun - 17:37:48 10° WSW 17:56:37 64° S 18:06:07 10° ESE daylight
28 Jun - 20:10:55 10° W 20:22:41 41° SSW 20:29:12 10° SE visible
